Probability
27 27 26 32 44 55 58 57 53 50 47 43 38 32 28 25 25 26 27 25 21 19 18 18 20 20 17 16 16 15 14 14 13 11 10 9 8 7 8 9 9 9 10
33 32 30 35 46 53 54 53 53 50 47 43 37 32 29 26 24 24 25 23 20 19 18 18 20 21 20 19 18 16 14 13 12 11 11 10 8 7 8 9 9 10 12
37 36 36 39 46 49 48 48 51 49 45 40 35 31 29 27 24 23 23 22 20 18 18 18 19 23 24 22 18 16 13 12 12 12 11 10 9 8 8 9 10 12 14
35 37 39 43 47 46 44 46 48 47 41 36 31 29 29 28 25 23 24 24 21 17 16 17 20 23 24 21 17 15 13 12 12 12 12 11 10 9 8 9 9 11 13
32 35 40 45 48 47 45 46 47 45 41 35 30 29 29 28 26 25 26 26 23 19 16 17 21 23 22 18 16 15 14 14 13 13 12 11 11 10 9 8 7 7 8
29 33 41 46 47 45 45 49 50 46 42 37 32 32 32 31 30 29 28 27 25 23 20 19 21 22 20 17 16 15 16 16 14 13 13 12 12 12 10 8 7 5 5
30 35 42 46 45 42 45 52 53 48 42 37 35 35 35 34 34 33 32 29 26 25 25 24 24 23 19 16 15 15 16 18 17 16 14 13 13 14 12 10 8 6 5
30 36 43 45 44 43 46 53 54 49 42 37 36 37 37 36 35 35 33 31 27 25 25 27 27 26 21 17 16 17 18 20 20 19 17 14 14 13 12 10 9 7 6
29 34 40 42 43 46 50 53 53 49 42 38 36 36 37 37 35 34 32 29 27 24 23 26 28 29 25 20 20 21 22 23 23 22 20 16 13 12 11 10 9 8 7
27 30 36 40 42 46 50 52 51 47 43 39 36 34 35 37 36 34 31 28 27 26 24 25 28 30 28 25 24 23 23 25 26 25 21 17 14 12 11 11 10 9 9
25 28 32 36 38 42 47 49 48 45 43 42 38 35 35 36 36 33 30 29 29 28 27 27 29 30 29 27 26 24 24 25 26 26 24 20 18 15 14 13 11 12 13
24 27 31 32 35 40 43 44 43 40 39 40 39 36 34 34 35 33 32 32 31 28 26 26 28 29 27 26 25 25 24 23 25 27 27 25 22 19 17 14 12 13 14
25 30 34 35 36 39 40 38 37 34 33 34 35 34 32 31 32 33 34 34 31 24 21 22 24 25 24 23 24 24 23 22 24 27 28 27 24 22 19 16 14 13 13
30 34 39 40 40 40 38 35 32 31 30 30 31 30 30 30 31 31 32 33 28 21 18 19 20 21 22 23 24 25 23 22 24 26 27 26 24 22 19 17 16 15 14
32 35 39 40 38 38 36 34 32 30 29 30 29 28 28 29 29 29 29 29 26 20 19 20 20 20 20 20 21 22 23 23 24 25 25 24 21 19 16 14 13 13 14
28 32 35 36 35 35 35 33 31 30 30 29 27 26 25 26 27 27 27 26 24 21 20 20 22 21 18 15 14 17 21 23 22 22 22 20 16 13 12 10 8 9 10
25 29 31 32 34 34 34 32 30 31 30 28 25 23 22 24 26 27 27 26 24 22 20 20 23 22 17 11 7 10 17 21 21 20 19 17 13 10 10 8 6 6 7
29 29 29 30 32 33 32 31 30 30 28 26 24 22 23 25 27 28 29 28 27 24 22 21 22 20 15 9 4 5 13 19 20 19 17 16 14 11 9 9 8 8 8
30 29 28 28 30 29 28 29 28 27 25 24 22 21 23 25 26 27 28 28 27 25 23 21 20 19 15 8 3 4 11 16 19 17 15 15 13 10 8 8 9 8 7
28 28 27 28 28 26 25 25 25 25 23 22 21 19 20 21 22 24 25 24 23 23 23 22 20 18 15 8 3 4 9 13 15 15 13 11 10 8 6 6 7 7 5
29 29 28 28 27 25 23 22 22 23 22 20 18 16 18 19 20 21 22 21 20 21 23 23 20 18 14 7 3 3 6 10 12 13 12 10 7 5 4 4 5 4 2
31 30 29 27 26 25 23 21 21 20 18 16 14 15 17 19 20 20 21 20 18 19 20 20 19 18 14 8 4 3 4 6 10 10 9 7 4 2 2 2 3 2 1
27 29 29 27 25 24 22 21 21 18 15 12 12 13 15 17 18 19 20 19 17 16 16 16 16 16 13 10 5 2 1 3 5 6 5 3 2 1 0 1 1 0 0
24 26 26 25 23 21 21 21 20 18 14 11 11 11 12 14 16 17 18 17 15 15 14 13 13 12 11 10 7 4 2 1 1 2 1 1 0 0 0 0 0 0 0
22 23 22 20 19 19 19 20 21 20 16 12 11 10 10 11 13 16 17 15 13 12 11 11 10 9 8 7 5 4 3 1 0 0 1 1 0 0 0 0 0 0 0
22 21 19 18 17 18 19 21 22 21 17 13 11 10 10 10 11 14 15 13 10 9 8 7 7 6 4 3 2 2 2 1 0 1 2 2 1 0 0 0 0 0 0
Wind_Speed
10 9 8 9 9 8 8 8 6 6 5 4 3 3 3 2 2 2 2 3 3 3 1 1 2 1 1 1 1 1 0 0 0 1 0 1 2 2 2 1 1 2 2
10 9 9 9 10 9 8 8 7 7 5 3 3 3 3 2 2 2 2 3 3 2 3 2 1 1 1 1 1 1 1 1 1 1 1 1 0 0 2 2 3 3 2
9 9 9 8 10 9 9 7 6 7 6 5 4 3 3 2 2 2 3 3 3 3 2 2 1 2 1 1 1 1 2 1 1 0 1 1 1 0 0 2 1 1 1
9 9 10 9 9 9 8 7 7 6 6 5 5 5 4 3 3 2 2 2 3 3 3 2 2 1 1 1 2 1 1 1 1 1 1 1 1 1 0 1 1 1 1
10 9 10 10 9 9 8 7 7 6 6 5 5 4 4 3 2 3 3 3 2 2 3 2 2 2 1 2 2 1 1 1 1 1 1 1 1 2 1 1 1 1 1
8 7 8 9 8 8 8 8 7 6 5 5 4 4 4 3 3 3 3 3 2 2 2 2 2 2 2 2 2 2 2 2 2 1 1 1 1 1 1 2 2 2 1
7 6 7 9 8 8 8 8 8 7 6 5 4 4 4 3 3 3 3 3 2 2 3 3 3 2 2 2 2 2 2 2 2 2 2 2 2 1 1 1 2 1 1
6 7 7 7 7 7 7 8 8 7 7 6 4 4 4 3 3 3 3 3 2 2 3 3 3 3 3 3 3 2 3 2 2 3 2 2 2 1 1 1 1 1 2
5 7 7 7 7 6 6 6 8 7 6 6 5 4 4 4 3 3 2 2 1 1 2 3 3 3 3 3 3 3 3 2 3 3 3 2 2 1 1 1 1 2 2
5 6 6 7 7 7 5 5 6 7 6 6 5 5 4 3 3 3 3 2 2 1 2 2 2 2 3 3 3 2 3 3 3 2 3 2 2 1 1 1 2 2 2
6 6 5 6 6 7 6 6 5 5 5 5 5 4 4 4 3 3 3 2 2 2 2 2 2 3 2 3 3 3 3 3 3 3 3 3 2 2 2 2 2 2 1
4 6 6 6 6 6 6 5 5 4 4 4 4 4 3 3 3 3 3 2 2 2 2 2 3 3 3 3 3 3 3 3 4 3 3 3 3 3 2 2 2 2 1
4 5 6 5 5 5 5 4 4 4 4 4 4 4 3 3 3 2 2 3 2 2 2 2 3 3 3 3 3 3 3 3 3 3 4 3 3 3 3 2 3 2 2
4 4 4 4 4 4 4 4 4 4 4 4 4 4 3 3 3 3 2 3 3 3 2 2 3 2 2 2 3 3 3 3 3 3 3 3 4 3 3 3 3 2 3
4 4 4 3 3 3 3 3 3 3 3 3 4 4 3 3 3 2 2 2 3 3 2 2 3 2 2 2 1 2 3 3 3 4 4 4 4 3 3 3 2 3 3
3 3 3 3 3 2 2 2 2 2 3 3 3 3 3 3 3 2 2 2 2 2 2 2 2 2 2 1 0 1 2 3 3 3 3 3 4 4 4 5 4 4 5
3 3 3 2 2 1 1 1 1 2 2 2 2 2 3 3 3 3 2 2 2 2 2 2 2 2 1 1 1 2 3 3 3 3 2 3 3 3 3 4 5 5 6
2 2 2 1 1 1 1 1 1 1 1 1 1 1 2 2 2 2 2 1 1 2 3 3 3 2 2 2 1 2 3 3 3 3 3 2 1 1 1 2 3 4 4
3 3 2 1 1 1 1 1 1 1 1 1 1 1 1 1 1 1 1 1 1 2 3 3 3 2 2 2 2 2 3 2 3 3 2 1 1 2 2 2 3 4 4
2 2 2 2 2 0 1 1 1 0 0 1 1 1 1 1 1 1 1 1 1 2 2 2 2 2 2 2 2 1 3 3 2 2 2 2 2 3 3 3 4 4 4
1 2 2 2 2 2 1 1 1 0 0 1 1 1 1 1 1 1 1 1 2 2 2 2 2 2 2 3 3 2 2 3 3 2 2 2 3 4 5 5 5 5 4
2 1 2 2 2 1 1 1 0 1 1 1 1 1 1 2 1 1 1 2 2 2 2 2 2 2 2 3 3 3 4 4 4 3 2 2 4 4 5 5 6 6 4
1 1 1 1 1 1 1 1 1 1 1 1 1 1 2 1 1 2 2 2 2 2 2 2 2 1 1 1 2 3 4 5 4 3 3 4 4 5 5 6 7 5 4
0 0 0 1 1 1 1 1 1 1 2 2 1 2 2 2 1 1 2 1 2 2 2 2 1 0 0 0 1 1 2 2 3 3 3 3 5 4 4 4 4 4 3
1 0 0 1 1 1 1 1 1 1 2 2 2 3 3 2 1 1 1 1 1 1 1 1 1 1 1 1 2 2 2 2 1 2 2 2 2 2 2 3 3 3 3
1 1 1 1 1 2 2 2 2 2 2 3 3 2 3 2 2 2 1 0 2 4 4 3 1 0 1 2 2 2 3 3 2 2 2 2 2 2 2 2 2 2 2
Wind_Direction
171 163 161 151 143 143 145 147 152 146 147 151 162 163 163 157 145 134 139 149 152 149 171 144 153 173 124 116 122 112 152 189 153 106 72 189 178 157 179 159 151 192 186
169 159 157 151 147 145 148 153 151 152 162 160 165 170 161 160 150 139 143 152 150 155 177 172 173 151 127 142 159 163 178 218 187 175 191 200 163 205 179 160 182 191 193
167 161 160 154 152 152 153 157 155 157 169 162 163 159 147 147 146 152 157 163 158 159 171 176 187 150 150 153 176 191 195 222 228 209 219 209 187 234 213 191 174 162 187
169 167 166 161 159 158 156 149 148 155 165 167 174 168 168 174 172 163 154 158 164 168 172 183 182 168 167 160 205 199 233 221 239 249 238 266 100 184 225 268 204 182 182
173 164 164 160 157 155 154 150 146 152 164 175 178 176 175 171 154 151 151 158 166 169 170 172 176 190 183 185 216 190 222 238 245 249 259 258 234 216 198 227 247 260 201
159 153 152 148 150 152 152 149 149 152 159 175 174 181 179 168 157 150 152 169 171 172 175 180 175 191 191 196 201 189 214 245 266 265 260 249 247 236 222 218 222 232 238
145 143 146 148 149 153 153 151 153 157 161 169 177 181 181 173 168 164 168 180 178 175 185 188 181 193 192 192 194 199 222 233 251 259 269 275 269 253 241 234 238 237 243
139 137 139 138 144 147 151 151 154 160 164 168 173 173 179 182 181 183 182 183 189 178 176 184 184 190 192 196 192 211 219 213 229 244 245 264 274 273 261 226 240 264 262
133 131 130 139 144 143 141 148 154 158 165 170 166 162 172 186 184 182 187 192 187 187 166 181 192 201 202 206 198 218 221 209 220 235 238 243 260 257 266 243 231 245 267
133 124 126 139 140 135 134 135 143 158 165 167 172 174 177 183 179 180 187 187 191 204 187 176 194 213 207 207 210 220 220 215 219 219 227 236 246 246 250 255 259 255 255
131 126 118 115 123 131 136 134 140 149 157 162 163 168 168 172 174 180 189 189 186 196 191 182 199 214 210 205 215 225 222 219 220 220 220 225 226 241 260 258 262 266 262
122 128 123 123 127 128 133 138 138 149 151 151 154 160 156 163 168 183 192 193 200 196 204 203 206 213 208 207 212 221 226 225 220 220 222 227 225 225 251 267 267 261 254
120 120 120 122 121 122 130 137 144 150 149 153 157 149 158 168 180 183 188 197 203 200 205 214 222 225 216 214 217 221 225 229 226 220 221 225 231 237 232 244 258 257 260
118 105 104 112 117 122 133 146 150 146 147 148 153 159 168 177 182 183 194 200 194 204 206 214 230 229 227 223 223 219 228 228 229 229 226 220 221 237 241 238 239 254 264
126 117 114 107 108 119 134 142 146 142 148 151 155 163 171 172 171 183 192 199 196 210 209 212 223 226 222 231 238 237 239 238 237 232 225 222 214 211 230 250 248 249 252
136 128 124 120 113 116 137 138 136 144 152 161 169 166 170 173 176 183 182 196 197 204 208 216 230 237 238 218 97 286 262 253 249 249 240 220 212 211 218 235 245 246 248
148 130 113 105 120 139 154 183 168 157 171 177 167 165 172 179 178 186 175 192 204 203 209 214 225 228 223 234 260 291 275 263 256 253 254 258 244 215 224 236 245 251 252
114 107 117 137 142 127 116 116 148 155 168 174 192 200 195 185 179 176 173 190 214 216 222 220 223 218 212 206 238 285 264 261 254 247 242 236 265 287 278 264 262 262 260
81 87 87 94 97 111 131 138 146 183 210 211 209 223 215 200 202 200 192 199 223 233 232 224 222 212 189 204 218 273 265 252 258 257 262 223 200 265 284 265 268 274 271
85 101 114 92 81 42 126 151 223 187 288 297 280 272 240 234 245 229 196 209 238 240 247 236 227 218 175 181 190 240 273 268 263 242 235 225 232 240 247 256 259 262 274
99 110 122 117 148 183 182 185 254 255 271 298 292 276 259 246 246 249 241 224 235 238 240 241 232 199 160 172 192 218 270 288 279 259 241 238 237 238 239 247 253 256 270
83 91 113 127 138 152 175 200 270 292 283 275 281 277 262 259 251 233 247 240 239 234 228 231 237 214 174 164 198 220 246 284 288 284 278 240 239 240 242 248 254 261 268
89 82 99 109 123 147 184 216 257 260 258 257 261 259 253 253 219 227 237 234 232 237 236 230 232 217 174 160 180 216 248 272 284 300 307 284 252 252 245 241 246 248 245
70 103 114 148 167 188 209 223 243 245 239 236 238 231 222 226 214 234 239 236 251 243 252 248 253 280 109 35 321 273 258 268 278 288 294 278 257 259 257 259 249 238 238
324 257 210 198 216 223 224 230 240 233 224 235 236 238 235 225 218 226 250 232 222 197 220 280 283 257 266 261 258 273 277 276 278 290 274 260 254 245 237 237 240 232 230
298 257 235 232 235 232 234 234 226 233 229 230 238 242 238 222 221 216 194 98 190 168 154 161 165 173 219 236 236 241 260 270 260 255 257 261 259 255 257 258 257 243 233